TimeHST,TemperatureF,Dew PointF,Humidity,Sea Level PressureIn,VisibilityMPH,Wind Direction,Wind SpeedMPH,Gust SpeedMPH,PrecipitationIn,Events,Conditions,WindDirDegrees,DateUTC
12:54 AM,62.1,55.9,80,30.06,10.0,SE,6.9,-,N/A,,Clear,140,2012-03-20 10:54:00
1:54 AM,62.1,55.9,80,30.04,10.0,SSE,6.9,-,N/A,,Clear,150,2012-03-20 11:54:00
2:54 AM,60.1,55.0,83,30.03,10.0,SE,6.9,-,N/A,,Clear,130,2012-03-20 12:54:00
3:54 AM,60.1,55.0,83,30.02,10.0,South,5.8,-,N/A,,Clear,170,2012-03-20 13:54:00
4:54 AM,59.0,54.0,83,30.03,10.0,SE,6.9,-,N/A,,Clear,140,2012-03-20 14:54:00
5:54 AM,61.0,55.0,81,30.04,10.0,SE,5.8,-,N/A,,Clear,140,2012-03-20 15:54:00
6:54 AM,57.9,54.0,87,30.06,10.0,South,4.6,-,N/A,,Clear,180,2012-03-20 16:54:00
7:54 AM,69.1,61.0,75,30.08,10.0,Calm,Calm,-,N/A,,Clear,0,2012-03-20 17:54:00
8:54 AM,75.0,59.0,57,30.09,10.0,Calm,Calm,-,N/A,,Clear,0,2012-03-20 18:54:00
9:54 AM,78.1,59.0,52,30.08,10.0,Variable,4.6,-,N/A,,Clear,0,2012-03-20 19:54:00
10:54 AM,80.1,59.0,48,30.08,10.0,NNW,11.5,-,0.00,,Partly Cloudy,340,2012-03-20 20:54:00
11:54 AM,82.9,60.1,46,30.06,10.0,NE,12.7,-,N/A,,Scattered Clouds,40,2012-03-20 21:54:00
12:54 PM,82.9,61.0,47,30.05,10.0,ENE,15.0,21.9,N/A,,Scattered Clouds,60,2012-03-20 22:54:00
1:54 PM,84.0,61.0,46,30.03,10.0,NE,16.1,-,N/A,,Scattered Clouds,50,2012-03-20 23:54:00
2:54 PM,82.9,61.0,47,30.02,10.0,NE,18.4,-,N/A,,Partly Cloudy,50,2012-03-21 00:54:00
3:54 PM,81.0,62.1,52,30.02,10.0,NE,17.3,23.0,N/A,,Partly Cloudy,50,2012-03-21 01:54:00
4:54 PM,80.1,62.1,54,30.02,10.0,NE,13.8,-,N/A,,Scattered Clouds,50,2012-03-21 02:54:00
5:54 PM,77.0,62.1,60,30.03,10.0,NE,10.4,20.7,N/A,,Scattered Clouds,40,2012-03-21 03:54:00
6:54 PM,73.9,59.0,59,30.05,10.0,ENE,11.5,-,N/A,,Mostly Cloudy,70,2012-03-21 04:54:00
7:54 PM,71.1,59.0,66,30.09,10.0,ENE,10.4,-,N/A,,Partly Cloudy,70,2012-03-21 05:54:00
8:54 PM,71.1,57.9,63,30.10,10.0,ENE,9.2,-,N/A,,Clear,70,2012-03-21 06:54:00
9:54 PM,69.1,60.1,73,30.13,10.0,NE,10.4,-,N/A,,Clear,50,2012-03-21 07:54:00
10:54 PM,71.1,60.1,68,30.13,10.0,NE,12.7,-,N/A,,Clear,50,2012-03-21 08:54:00
11:54 PM,70.0,62.1,76,30.13,10.0,NE,13.8,-,N/A,,Mostly Cloudy,50,2012-03-21 09:54:00